カタログに戻る

COSMOS 2198

運用中軍事PO
NORAD 22035·PAYLOAD·🇷🇺 Russia

打ち上げ Jul 13, 1992 から Plesetsk Cosmodrome

Loading…

次のパス (今後24時間)

TLE

最新Source: Space-Track

元期: Sep 14, 2026, 19:03 UTC

1 22035U 92042B   26257.79410310  .00000026  00000-0  83320-4 0  9994
2 22035  82.5999 197.4148 0007457 105.5321 254.6594 12.62675275574723

AllMySatでCOSMOS 2198をリアルタイム追跡

Download on the App Store